Weather History for Pine Ridge, SD

Change the Weather History Date:

Wednesday, November 21, 2012

  Actual Average Record
Temperature  
Mean Temperature 52 °F 31 °F  
Max Temperature 73 °F 45 °F 73 °F (2012)
Min Temperature 30 °F 17 °F -4 °F (2013)
Degree Days  
Heating Degree Days 13 34  
Month to date heating degree days 532 606  
Since 1 July heating degree days 1279 1361  
Cooling Degree Days 0 0  
Month to date cooling degree days 0 0  
Year to date cooling degree days 1103 717  
Growing Degree Days 1 (Base 50)    
Moisture  
Dew Point 21 °F    
Average Humidity 48    
Maximum Humidity 85    
Minimum Humidity 11    
Precipitation  
Precipitation 0.00 in 0.01 in 0.05 in (2013)
Month to date precipitation 0.03 0.48  
Year to date precipitation 10.26 17.08  
Sea Level Pressure  
Sea Level Pressure 29.83 in    
Wind  
Wind Speed 7 mph (West)    
Max Wind Speed 28 mph    
Max Gust Speed 35 mph    
Visibility 10 miles    
Events      
T = Trace of Precipitation, MM = Missing Value Source: NWS Daily Summary

Daily Weather History Graph

Daily Weather History Graph

Search for Another Location

Airport:

Trip Planner

Search our weather history database for the weather conditions in past years. The results will help you decide how hot, cold, wet, or windy it might be!

Date:

Astronomy

Nov. 21, 2012 Rise Set
Actual Time 6:50 AM MST 4:21 PM MST
Civil Twilight 6:19 AM MST 4:52 PM MST
Nautical Twilight 5:44 AM MST 5:27 PM MST
Astronomical Twilight 5:10 AM MST 6:00 PM MST
Moon 12:47 PM MST (11/21) 12:02 AM MST (11/21)
Length of Visible Light 10h 32m
Length of Day
9h 30m
Waxing Gibbous, 62% of the Moon is Illuminated
Nov 21
Waxing Gibbous
Nov 28
Full
Dec 6
Last Quarter
Dec 13
New
Dec 19
First Quarter

Hourly Weather History & Observations

Time (MST) Temp. Windchill Dew Point Humidity Pressure Visibility Wind Dir Wind Speed Gust Speed Precip Events Conditions
12:52 AM 30.0 °F - 25.0 °F 82% 29.95 in 10.0 mi Calm Calm - N/A   Clear
1:52 AM 30.9 °F - 25.0 °F 79% 29.96 in 10.0 mi Calm Calm - N/A   Clear
2:52 AM 30.9 °F - 25.0 °F 79% 29.94 in 10.0 mi Calm Calm - N/A   Clear
3:52 AM 36.0 °F 32.1 °F 27.0 °F 70% 29.92 in 10.0 mi West 4.6 mph - N/A   Clear
4:52 AM 32.0 °F - 26.1 °F 79% 29.95 in 10.0 mi Calm Calm - N/A   Clear
5:52 AM 30.9 °F - 26.1 °F 82% 29.95 in 10.0 mi Calm Calm - N/A   Clear
6:52 AM 30.0 °F - 25.0 °F 82% 29.95 in 10.0 mi Calm Calm - N/A   Clear
7:52 AM 36.0 °F 33.3 °F 26.1 °F 67% 29.94 in 10.0 mi NW 3.5 mph - N/A   Clear
9:52 AM 66.0 °F - 23.0 °F 20% 29.86 in 10.0 mi WSW 15.0 mph - N/A   Clear
10:52 AM 70.0 °F - 21.9 °F 16% 29.81 in 10.0 mi WSW 17.3 mph - N/A   Clear
11:52 AM 70.0 °F - 19.9 °F 15% 29.78 in 10.0 mi WSW 23.0 mph 29.9 mph N/A   Clear
12:52 PM 72.0 °F - 16.0 °F 12% 29.77 in 10.0 mi WSW 17.3 mph 27.6 mph N/A   Clear
1:52 PM 72.0 °F - 14.0 °F 11% 29.75 in 10.0 mi WSW 23.0 mph 31.1 mph N/A   Clear
2:52 PM 69.1 °F - 16.0 °F 13% 29.75 in 10.0 mi WSW 15.0 mph 20.7 mph N/A   Clear
3:52 PM 64.0 °F - 16.0 °F 16% 29.74 in 10.0 mi West 8.1 mph - N/A   Clear
4:52 PM 59.0 °F - 18.0 °F 20% 29.76 in 10.0 mi WSW 12.7 mph - N/A   Clear
5:52 PM 57.9 °F - 17.1 °F 20% 29.77 in 10.0 mi West 4.6 mph - N/A   Clear
6:52 PM 52.0 °F - 18.0 °F 26% 29.78 in 10.0 mi WNW 3.5 mph - N/A   Clear
7:52 PM 52.0 °F - 18.0 °F 26% 29.77 in 10.0 mi WNW 4.6 mph - N/A   Clear
8:52 PM 53.1 °F - 19.9 °F 27% 29.74 in 10.0 mi West 6.9 mph - N/A   Clear
9:52 PM 52.0 °F - 21.0 °F 30% 29.73 in 10.0 mi West 6.9 mph - N/A   Clear
10:52 PM 51.1 °F - 21.9 °F 32% 29.72 in 10.0 mi West 3.5 mph - N/A   Clear
11:52 PM 52.0 °F - 21.9 °F 31% 29.73 in 10.0 mi Calm Calm - N/A   Clear